New Orleans Lakefront, LA

6:11 AM CST on November 17, 2019 (GMT -0600)
Lakefront

Weather History for KNEW - September, 2019

Change the Weather History Date:

Saturday, September 21, 2019

  Actual Average Record
Temperature  
Mean Temperature 83 °F 79 °F  
Max Temperature 90 °F 86 °F 96 °F (2016)
Min Temperature 76 °F 71 °F 59 °F (1983)
Degree Days  
Heating Degree Days 0 0  
Month to date heating degree days 0 0  
Since 1 July heating degree days 0 0  
Cooling Degree Days 18 14  
Month to date cooling degree days 448 332  
Year to date cooling degree days 3089 2578  
Growing Degree Days 28 (Base 50)    
Moisture  
Dew Point 73 °F    
Average Humidity 74    
Maximum Humidity 85    
Minimum Humidity 63    
Precipitation  
Precipitation 0.17 in 0.15 in 2.53 in (2013)
Month to date precipitation 0.19 3.74  
Year to date precipitation 46.95 47.95  
Snow  
Snow 0.00 in - - ()
Month to date snowfall 0.0  
Since 1 July snowfall 0.0  
Since 1 September snowfall 0.0  
Snow Depth 0.00 in    
Sea Level Pressure  
Sea Level Pressure 30.12 in    
Wind  
Wind Speed 8 mph (ESE)    
Max Wind Speed 23 mph    
Max Gust Speed 27 mph    
Visibility 6 miles    
Events Rain    
T = Trace of Precipitation, MM = Missing Value Source: NWS Daily Summary

Daily Weather History Graph

Daily Weather History Graph

Search for Another Location

Airport or City:

Astronomy

Sep. 21, 2019 Rise Set
Actual Time 6:47 AM CDT 6:58 PM CDT
Civil Twilight 6:23 AM CDT 7:22 PM CDT
Nautical Twilight 5:56 AM CDT 7:49 PM CDT
Astronomical Twilight 5:27 AM CDT 8:17 PM CDT
Moon No Moon Rise 1:26 PM CDT (9/21)
Length of Visible Light 12h 58m
Length of Day
12h 10m
Waning Gibbous, 54% of the Moon is Illuminated
Sep 21
Waning Gibbous
Sep 21
Last Quarter
Sep 28
New
Oct 5
First Quarter
Oct 13
Full

Hourly Weather History & Observations

Time (CDT) Temp. Heat Index Dew Point Humidity Pressure Visibility Wind Dir Wind Speed Gust Speed Precip Events Conditions
12:53 AM 81.0 °F 84.9 °F 71.1 °F 72% 30.09 in 10.0 mi ESE 8.1 mph - N/A   Clear
1:53 AM 81.0 °F 85.2 °F 72.0 °F 74% 30.09 in 10.0 mi ESE 10.4 mph - N/A   Clear
2:53 AM 81.0 °F 85.2 °F 72.0 °F 74% 30.08 in 10.0 mi ESE 9.2 mph - N/A   Clear
3:53 AM 81.0 °F 84.9 °F 71.1 °F 72% 30.08 in 10.0 mi ESE 10.4 mph - N/A   Clear
4:53 AM 81.0 °F 85.2 °F 72.0 °F 74% 30.09 in 10.0 mi ESE 6.9 mph - N/A   Clear
5:53 AM 80.1 °F 83.8 °F 72.0 °F 76% 30.09 in 10.0 mi ESE 5.8 mph - N/A   Clear
6:53 AM 82.0 °F 87.4 °F 73.0 °F 74% 30.10 in 10.0 mi ESE 10.4 mph - N/A   Mostly Cloudy
7:44 AM 80.1 °F 84.2 °F 73.0 °F 79% 30.13 in 10.0 mi ESE 6.9 mph - N/A   Overcast
7:53 AM 79.0 °F - 73.0 °F 82% 30.12 in 10.0 mi ENE 13.8 mph 18.4 mph N/A   Overcast
8:21 AM 80.1 °F 84.5 °F 73.9 °F 81% 30.14 in 10.0 mi ENE 13.8 mph - N/A   Mostly Cloudy
8:53 AM 79.0 °F - 73.9 °F 84% 30.13 in 10.0 mi ENE 15.0 mph - N/A   Scattered Clouds
9:12 AM 80.1 °F 84.5 °F 73.9 °F 81% 30.16 in 10.0 mi ENE 12.7 mph - 0.00 in   Mostly Cloudy
9:20 AM 80.1 °F 84.5 °F 73.9 °F 81% 30.16 in 10.0 mi ENE 15.0 mph - 0.00 in   Scattered Clouds
9:53 AM 81.0 °F 86.7 °F 75.0 °F 82% 30.14 in 10.0 mi ENE 13.8 mph - 0.00 in   Mostly Cloudy
10:43 AM 78.1 °F - 72.0 °F 81% 30.17 in 1.5 mi SSE 15.0 mph 24.2 mph 0.10 in Rain Heavy Rain
10:46 AM 75.9 °F - 72.0 °F 87% 30.17 in 0.8 mi SE 11.5 mph 24.2 mph 0.14 in Rain Heavy Rain
10:53 AM 75.9 °F - 72.0 °F 87% 30.15 in 0.8 mi ESE 8.1 mph - 0.28 in Rain Heavy Rain
11:00 AM 77.0 °F - 73.0 °F 88% 30.17 in 2.0 mi ESE 12.7 mph - 0.01 in Rain Light Rain
11:07 AM 78.1 °F - 73.9 °F 87% 30.17 in 4.0 mi East 10.4 mph - 0.02 in Rain Rain
11:53 AM 80.1 °F 85.1 °F 75.0 °F 85% 30.14 in 4.0 mi East 12.7 mph - 0.03 in Rain Rain
12:07 PM 79.0 °F - 73.0 °F 82% 30.15 in 1.8 mi East 8.1 mph - 0.04 in Rain Heavy Rain
12:35 PM 78.1 °F - 75.0 °F 90% 30.15 in 1.8 mi East 16.1 mph - 0.09 in Rain Heavy Rain
12:49 PM 77.0 °F - 73.4 °F 89% 30.15 in 0.8 mi SE 15.0 mph 26.5 mph 0.30 in Rain Heavy Rain
12:53 PM 77.0 °F - 73.9 °F 90% 30.13 in 1.0 mi SE 13.8 mph - 0.31 in Rain Heavy Rain
1:02 PM 78.1 °F - 75.0 °F 90% 30.14 in 5.0 mi SE 16.1 mph - 0.02 in Rain Light Rain
1:53 PM 77.0 °F - 73.0 °F 88% 30.12 in 5.0 mi SE 10.4 mph 21.9 mph 0.32 in Rain Heavy Rain
2:00 PM 78.1 °F - 73.9 °F 87% 30.13 in 0.8 mi SSE 18.4 mph 24.2 mph 0.04 in Rain Heavy Rain
2:06 PM 79.0 °F - 73.9 °F 84% 30.12 in 2.0 mi SSE 17.3 mph 24.2 mph 0.04 in Rain Light Rain
2:14 PM 80.1 °F 84.5 °F 73.9 °F 81% 30.12 in 9.0 mi SE 10.4 mph - 0.04 in Rain Light Rain
2:50 PM 80.6 °F 86.2 °F 75.2 °F 84% 30.11 in 5.0 mi East 18.4 mph - 0.05 in Rain Light Rain
2:53 PM 80.1 °F 85.1 °F 75.0 °F 85% 30.09 in 5.0 mi East 15.0 mph - 0.05 in Rain Light Rain
3:02 PM 81.0 °F 87.3 °F 75.9 °F 85% 30.11 in 10.0 mi East 18.4 mph 24.2 mph 0.00 in   Mostly Cloudy
3:36 PM 79.0 °F - 73.0 °F 82% 30.11 in 1.8 mi East 18.4 mph 25.3 mph 0.04 in Rain Heavy Rain
3:43 PM 79.0 °F - 73.0 °F 82% 30.10 in 3.0 mi East 12.7 mph - 0.04 in Rain Light Rain
3:53 PM 80.1 °F 84.5 °F 73.9 °F 81% 30.09 in 9.0 mi East 16.1 mph - 0.04 in   Overcast
4:34 PM 77.0 °F - 73.9 °F 90% 30.11 in 1.5 mi East 16.1 mph - 0.03 in Rain Heavy Rain
4:50 PM 78.8 °F - 73.4 °F 83% 30.11 in 2.0 mi East 13.8 mph - 0.06 in Rain Heavy Rain
4:58 PM 77.0 °F - 73.9 °F 90% 30.11 in 8.0 mi East 12.7 mph - 0.00 in Rain Light Rain
5:36 PM 77.0 °F - 73.0 °F 88% 30.11 in 8.0 mi East 18.4 mph 26.5 mph 0.02 in Rain Light Rain
5:53 PM 77.0 °F - 72.0 °F 84% 30.09 in 8.0 mi East 17.3 mph - 0.02 in   Overcast
6:53 PM 75.9 °F - 72.0 °F 87% 30.10 in 4.0 mi SE 18.4 mph 25.3 mph 0.00 in Rain Light Rain
7:53 PM 77.0 °F - 72.0 °F 84% 30.10 in 10.0 mi ESE 4.6 mph - 0.00 in   Overcast
8:53 PM 77.0 °F - 73.0 °F 88% 30.10 in 10.0 mi East 3.5 mph - N/A   Overcast
9:53 PM 78.1 °F - 71.1 °F 79% 30.11 in 10.0 mi SE 8.1 mph - N/A   Clear
10:53 PM 77.0 °F - 71.1 °F 82% 30.11 in 10.0 mi SE 8.1 mph - N/A   Partly Cloudy
11:53 PM 78.1 °F - 70.0 °F 76% 30.10 in 10.0 mi ESE 8.1 mph - N/A   Clear